ELY402 LLER-LLBG

Flight info

Callsign ELY402
Flight time 0h 31m
Altitude 25000
Route NURIT J10 AMMIT
Aircraft B738/M-SDE2E3FGHIJ1LORVWXY/LB1

Departure

Time 2026-04-24 12:27
Airport Ramon International Airport (LLER)

Arrival

Time 2026-04-24 12:58
Airport Ben Gurion International Airport (LLBG)
Time Latitude Longitude Altitude Speed Heading
2026-04-24 12:03 29.72526 35.00776 300 ft 0 kts 283°
2026-04-24 12:19 29.72523 35.00792 301 ft 2 kts 284°
2026-04-24 12:19 29.72519 35.00811 297 ft 2 kts 283°
2026-04-24 12:20 29.72515 35.00829 297 ft 2 kts 283°
2026-04-24 12:20 29.72512 35.00846 297 ft 2 kts 283°
2026-04-24 12:20 29.72508 35.00864 297 ft 2 kts 283°
2026-04-24 12:20 29.72505 35.00883 295 ft 2 kts 236°
2026-04-24 12:21 29.72510 35.00890 295 ft 2 kts 194°
2026-04-24 12:21 29.72495 35.00886 300 ft 2 kts 194°
2026-04-24 12:21 29.72488 35.00883 300 ft 0 kts 194°
2026-04-24 12:24 29.72465 35.00877 297 ft 8 kts 194°
2026-04-24 12:24 29.72428 35.00899 298 ft 9 kts 122°
2026-04-24 12:24 29.72409 35.00972 298 ft 10 kts 103°
2026-04-24 12:24 29.72401 35.01009 296 ft 4 kts 104°
2026-04-24 12:25 29.72394 35.01058 299 ft 8 kts 85°
2026-04-24 12:25 29.72407 35.01118 300 ft 8 kts 75°
2026-04-24 12:25 29.72405 35.01178 298 ft 8 kts 104°
2026-04-24 12:25 29.72391 35.01244 300 ft 9 kts 104°
2026-04-24 12:26 29.72387 35.01313 301 ft 9 kts 50°
2026-04-24 12:26 29.72413 35.01325 297 ft 3 kts 12°
2026-04-24 12:26 29.72598 35.01376 295 ft 63 kts 14°
2026-04-24 12:26 29.73257 35.01560 297 ft 129 kts 13°
2026-04-24 12:27 29.74276 35.01836 575 ft 159 kts 14°
2026-04-24 12:27 29.75366 35.02129 1251 ft 170 kts 10°
2026-04-24 12:27 29.76539 35.02377 2129 ft 166 kts
2026-04-24 12:27 29.77634 35.02593 3133 ft 160 kts 10°
2026-04-24 12:28 29.78774 35.02827 3705 ft 176 kts
2026-04-24 12:28 29.80120 35.03104 3866 ft 211 kts 10°
2026-04-24 12:28 29.81656 35.03425 4003 ft 239 kts 10°
2026-04-24 12:28 29.83372 35.03713 4191 ft 258 kts
2026-04-24 12:29 29.85201 35.03921 4840 ft 269 kts
2026-04-24 12:29 29.87097 35.04130 5577 ft 278 kts
2026-04-24 12:29 29.89058 35.04352 6302 ft 288 kts
2026-04-24 12:29 29.91065 35.04592 7139 ft 290 kts
2026-04-24 12:30 29.93089 35.04848 7955 ft 295 kts
2026-04-24 12:30 29.95155 35.05110 8669 ft 302 kts
2026-04-24 12:30 29.97247 35.05377 9593 ft 303 kts
2026-04-24 12:30 29.99363 35.05644 10348 ft 309 kts
2026-04-24 12:31 30.01566 35.05922 10708 ft 330 kts
2026-04-24 12:31 30.03930 35.06219 11022 ft 349 kts
2026-04-24 12:31 30.06369 35.06531 11665 ft 357 kts
2026-04-24 12:31 30.08856 35.06924 12395 ft 361 kts
2026-04-24 12:32 30.11341 35.07436 13185 ft 365 kts
2026-04-24 12:32 30.13851 35.07981 13884 ft 370 kts
2026-04-24 12:32 30.16391 35.08524 14562 ft 373 kts
2026-04-24 12:32 30.18963 35.09058 15195 ft 379 kts
2026-04-24 12:33 30.21586 35.09594 15791 ft 385 kts
2026-04-24 12:33 30.24236 35.10126 16455 ft 389 kts
2026-04-24 12:33 30.26919 35.10644 17081 ft 394 kts
2026-04-24 12:33 30.29637 35.11167 17675 ft 399 kts
2026-04-24 12:34 30.32396 35.11700 18278 ft 404 kts
2026-04-24 12:34 30.35178 35.12236 18846 ft 407 kts
2026-04-24 12:34 30.37981 35.12771 19437 ft 410 kts
2026-04-24 12:34 30.40808 35.13310 20007 ft 414 kts
2026-04-24 12:35 30.43664 35.13855 20551 ft 417 kts
2026-04-24 12:35 30.46541 35.14405 21099 ft 421 kts
2026-04-24 12:35 30.49437 35.14960 21676 ft 423 kts
2026-04-24 12:35 30.52332 35.15515 22423 ft 420 kts
2026-04-24 12:36 30.55202 35.16100 23130 ft 420 kts 10°
2026-04-24 12:36 30.58024 35.17068 23380 ft 425 kts 19°
2026-04-24 12:36 30.60715 35.18350 23423 ft 411 kts 21°
2026-04-24 12:36 30.63283 35.19660 23216 ft 397 kts 22°
2026-04-24 12:37 30.65787 35.20949 22688 ft 391 kts 21°
2026-04-24 12:37 30.68266 35.22210 22421 ft 387 kts 21°
2026-04-24 12:37 30.69897 35.23029 22257 ft 385 kts 21°
2026-04-24 12:37 30.72349 35.24248 21983 ft 382 kts 21°
2026-04-24 12:38 30.74798 35.25455 21743 ft 384 kts 20°
2026-04-24 12:38 30.77271 35.26670 21499 ft 387 kts 21°
2026-04-24 12:38 30.79752 35.27888 21248 ft 387 kts 20°
2026-04-24 12:39 30.87123 35.31513 20507 ft 380 kts 21°
2026-04-24 12:39 30.89540 35.32704 20195 ft 376 kts 21°
2026-04-24 12:39 30.91948 35.33890 19850 ft 374 kts 21°
2026-04-24 12:40 30.94376 35.34928 19494 ft 370 kts 12°
2026-04-24 12:40 30.96886 35.35458 19173 ft 364 kts
2026-04-24 12:40 30.99396 35.35697 18884 ft 360 kts
2026-04-24 12:40 31.01889 35.35921 18552 ft 359 kts
2026-04-24 12:41 31.04368 35.36165 18210 ft 358 kts
2026-04-24 12:41 31.06849 35.36424 17823 ft 357 kts
2026-04-24 12:41 31.09322 35.36677 17439 ft 355 kts
2026-04-24 12:41 31.11773 35.36924 17085 ft 353 kts
2026-04-24 12:42 31.14214 35.37170 16721 ft 351 kts
2026-04-24 12:42 31.16643 35.37415 16370 ft 349 kts
2026-04-24 12:42 31.19060 35.37670 16028 ft 347 kts
2026-04-24 12:42 31.21457 35.37929 15681 ft 346 kts
2026-04-24 12:43 31.23845 35.38189 15342 ft 344 kts
2026-04-24 12:43 31.26222 35.38447 15011 ft 343 kts
2026-04-24 12:43 31.28593 35.38703 14658 ft 341 kts
2026-04-24 12:43 31.30954 35.38958 14314 ft 340 kts
2026-04-24 12:44 31.33309 35.39220 13970 ft 340 kts
2026-04-24 12:44 31.35643 35.39639 13630 ft 339 kts
2026-04-24 12:44 31.37958 35.40156 13259 ft 338 kts
2026-04-24 12:44 31.40262 35.40694 12897 ft 337 kts
2026-04-24 12:45 31.42557 35.41226 12533 ft 336 kts
2026-04-24 12:45 31.44842 35.41747 12182 ft 334 kts
2026-04-24 12:45 31.47115 35.42258 11839 ft 332 kts
2026-04-24 12:45 31.49378 35.42762 11489 ft 330 kts
2026-04-24 12:46 31.51629 35.43261 11155 ft 328 kts
2026-04-24 12:46 31.53874 35.43758 10818 ft 327 kts
2026-04-24 12:46 31.56099 35.44249 10481 ft 325 kts
2026-04-24 12:46 31.58308 35.44739 10274 ft 319 kts
2026-04-24 12:47 31.60463 35.45238 10098 ft 313 kts
2026-04-24 12:47 31.62581 35.45739 9865 ft 309 kts
2026-04-24 12:47 31.64678 35.46235 9613 ft 305 kts
2026-04-24 12:47 31.66745 35.46721 9346 ft 302 kts
2026-04-24 12:48 31.68804 35.47174 9139 ft 298 kts
2026-04-24 12:48 31.70774 35.46803 8959 ft 286 kts 331°
2026-04-24 12:48 31.72235 35.45293 8639 ft 281 kts 299°
2026-04-24 12:48 31.73170 35.43296 8363 ft 278 kts 297°
2026-04-24 12:49 31.74102 35.41309 8072 ft 278 kts 297°
2026-04-24 12:49 31.75046 35.39322 7763 ft 278 kts 297°
2026-04-24 12:49 31.75990 35.37352 7480 ft 276 kts 298°
2026-04-24 12:49 31.76936 35.35389 7196 ft 276 kts 298°
2026-04-24 12:50 31.77886 35.33426 6910 ft 277 kts 298°
2026-04-24 12:50 31.78846 35.31456 6637 ft 279 kts 298°
2026-04-24 12:50 31.79813 35.29465 6298 ft 284 kts 299°
2026-04-24 12:50 31.80782 35.27476 6191 ft 276 kts 299°
2026-04-24 12:51 31.81728 35.25532 6074 ft 271 kts 299°
2026-04-24 12:51 31.82661 35.23623 5942 ft 266 kts 299°
2026-04-24 12:51 31.83556 35.21775 5821 ft 255 kts 299°
2026-04-24 12:51 31.84397 35.19981 5592 ft 247 kts 296°
2026-04-24 12:52 31.85158 35.18208 5381 ft 238 kts 298°
2026-04-24 12:52 31.85831 35.16775 5187 ft 229 kts 300°
2026-04-24 12:52 31.86630 35.15186 4936 ft 220 kts 302°
2026-04-24 12:52 31.87409 35.13672 4721 ft 213 kts 302°
2026-04-24 12:53 31.88173 35.12201 4496 ft 208 kts 303°
2026-04-24 12:53 31.88908 35.10778 4426 ft 198 kts 302°
2026-04-24 12:53 31.89632 35.09374 4177 ft 201 kts 303°
2026-04-24 12:53 31.90368 35.07984 3907 ft 200 kts 303°
2026-04-24 12:54 31.91087 35.06583 3627 ft 201 kts 303°
2026-04-24 12:54 31.91807 35.05184 3370 ft 200 kts 303°
2026-04-24 12:54 31.92531 35.03776 3092 ft 201 kts 303°
2026-04-24 12:54 31.93217 35.02339 2787 ft 201 kts 304°
2026-04-24 12:55 31.93992 35.00974 2515 ft 201 kts 303°
2026-04-24 12:55 31.94724 34.99573 2234 ft 201 kts 303°
2026-04-24 12:55 31.95444 34.98172 1952 ft 199 kts 304°
2026-04-24 12:55 31.96151 34.96814 1683 ft 188 kts 304°
2026-04-24 12:56 31.96798 34.95555 1430 ft 173 kts 304°
2026-04-24 12:56 31.97401 34.94397 1224 ft 156 kts 306°
2026-04-24 12:56 31.97943 34.93353 981 ft 142 kts 304°
2026-04-24 12:56 31.98452 34.92383 821 ft 139 kts 303°
2026-04-24 12:57 31.98947 34.91431 628 ft 133 kts 303°
2026-04-24 12:57 31.99424 34.90507 423 ft 134 kts 305°
2026-04-24 12:57 31.99920 34.89565 217 ft 135 kts 304°
2026-04-24 12:57 32.00397 34.88655 120 ft 119 kts 302°
2026-04-24 12:58 32.00747 34.87980 116 ft 75 kts 301°
2026-04-24 12:58 32.00944 34.87598 119 ft 42 kts 301°
2026-04-24 12:58 32.01052 34.87313 120 ft 24 kts 279°
2026-04-24 12:58 32.01063 34.87140 119 ft 16 kts 272°
2026-04-24 12:59 32.01040 34.87048 119 ft 7 kts 208°
2026-04-24 12:59 32.00999 34.87068 119 ft 7 kts 122°
2026-04-24 12:59 32.00990 34.87085 117 ft 0 kts 121°
2026-04-24 12:59 32.00984 34.87095 118 ft 4 kts 121°
2026-04-24 13:00 32.00964 34.87133 118 ft 6 kts 121°
2026-04-24 13:00 32.00943 34.87174 118 ft 6 kts 120°
2026-04-24 13:00 32.00917 34.87228 117 ft 10 kts 120°
2026-04-24 13:00 32.00877 34.87302 118 ft 11 kts 122°
2026-04-24 13:01 32.00838 34.87377 117 ft 11 kts 121°
2026-04-24 13:01 32.00792 34.87465 117 ft 13 kts 122°
2026-04-24 13:01 32.00746 34.87554 117 ft 13 kts 121°
2026-04-24 13:01 32.00701 34.87642 118 ft 12 kts 122°
2026-04-24 13:02 32.00656 34.87726 118 ft 12 kts 122°
2026-04-24 13:02 32.00613 34.87809 115 ft 12 kts 121°
2026-04-24 13:02 32.00572 34.87889 116 ft 11 kts 121°
2026-04-24 13:02 32.00531 34.87956 118 ft 9 kts 153°
2026-04-24 13:03 32.00474 34.87936 119 ft 9 kts 211°
2026-04-24 13:03 32.00421 34.87899 119 ft 9 kts 211°
2026-04-24 13:03 32.00371 34.87863 118 ft 8 kts 212°
2026-04-24 13:03 32.00322 34.87828 119 ft 9 kts 211°
2026-04-24 13:04 32.00271 34.87791 118 ft 8 kts 212°
2026-04-24 13:04 32.00235 34.87771 116 ft 2 kts 179°
2026-04-24 13:04 32.00211 34.87801 118 ft 6 kts 121°